QPF
0.00 0.00 0.00 0.00 0.01 0.01 0.00 0.00 0.00 0.00 0.00 0.00 0.00 0.00 0.00 0.00 0.01 0.03 0.00 0.00 0.00 0.00 0.00 0.00 0.00 0.00 0.00 0.00 0.00 0.00 0.00 0.00 0.00 0.00 0.00 0.00 0.00 0.00 0.00 0.00 0.00 0.00 0.00 0.00 0.00 0.00 0.00 0.00 0.00
0.00 0.00 0.01 0.00 0.02 0.03 0.00 0.00 0.00 0.00 0.00 0.00 0.00 0.00 0.00 0.00 0.00 0.00 0.00 0.00 0.00 0.00 0.00 0.00 0.00 0.00 0.00 0.00 0.00 0.00 0.00 0.00 0.00 0.00 0.00 0.00 0.00 0.00 0.00 0.00 0.00 0.00 0.00 0.00 0.00 0.00 0.00 0.00 0.00
0.00 0.00 0.01 0.00 0.02 0.02 0.00 0.00 0.00 0.00 0.00 0.00 0.00 0.00 0.00 0.00 0.00 0.00 0.00 0.00 0.00 0.00 0.00 0.00 0.00 0.00 0.00 0.00 0.00 0.00 0.00 0.00 0.00 0.00 0.00 0.00 0.00 0.00 0.00 0.00 0.00 0.00 0.00 0.00 0.00 0.00 0.00 0.00 0.00
0.00 0.00 0.01 0.01 0.01 0.00 0.00 0.00 0.00 0.00 0.00 0.00 0.00 0.00 0.00 0.00 0.00 0.00 0.00 0.00 0.00 0.00 0.00 0.00 0.00 0.00 0.00 0.00 0.00 0.00 0.00 0.00 0.00 0.00 0.00 0.00 0.00 0.00 0.00 0.00 0.00 0.00 0.00 0.00 0.00 0.00 0.00 0.00 0.00
0.00 0.00 0.00 0.01 0.01 0.01 0.00 0.00 0.00 0.00 0.00 0.00 0.00 0.00 0.00 0.00 0.00 0.00 0.00 0.00 0.00 0.00 0.00 0.00 0.00 0.00 0.00 0.00 0.00 0.00 0.00 0.00 0.00 0.00 0.00 0.00 0.00 0.00 0.00 0.00 0.00 0.00 0.00 0.00 0.00 0.00 0.00 0.00 0.00
0.00 0.00 0.00 0.01 0.01 0.01 0.00 0.00 0.00 0.00 0.00 0.00 0.00 0.00 0.00 0.00 0.00 0.00 0.00 0.00 0.00 0.00 0.00 0.00 0.00 0.00 0.00 0.00 0.00 0.00 0.00 0.00 0.00 0.00 0.00 0.00 0.00 0.00 0.00 0.00 0.00 0.00 0.00 0.00 0.00 0.00 0.00 0.00 0.00
0.00 0.00 0.00 0.00 0.01 0.00 0.00 0.00 0.00 0.00 0.00 0.00 0.00 0.00 0.00 0.00 0.00 0.00 0.00 0.00 0.00 0.00 0.00 0.00 0.00 0.00 0.00 0.00 0.00 0.00 0.00 0.00 0.00 0.00 0.00 0.00 0.00 0.00 0.00 0.00 0.00 0.00 0.00 0.00 0.00 0.00 0.00 0.00 0.00
0.00 0.00 0.00 0.00 0.00 0.00 0.00 0.00 0.00 0.00 0.00 0.00 0.00 0.00 0.00 0.00 0.00 0.00 0.00 0.00 0.00 0.00 0.00 0.00 0.00 0.00 0.00 0.00 0.00 0.00 0.00 0.00 0.00 0.00 0.00 0.00 0.00 0.00 0.00 0.00 0.00 0.00 0.00 0.00 0.00 0.00 0.00 0.00 0.00
0.00 0.00 0.00 0.00 0.00 0.00 0.00 0.00 0.00 0.00 0.00 0.00 0.00 0.00 0.00 0.00 0.00 0.00 0.00 0.00 0.00 0.00 0.00 0.00 0.00 0.00 0.00 0.00 0.00 0.00 0.00 0.00 0.00 0.00 0.00 0.00 0.00 0.01 0.02 0.02 0.02 0.01 0.00 0.00 0.00 0.01 0.01 0.01 0.00
0.00 0.00 0.00 0.00 0.00 0.00 0.00 0.00 0.00 0.01 0.02 0.01 0.00 0.00 0.00 0.00 0.00 0.00 0.00 0.00 0.00 0.00 0.00 0.00 0.00 0.00 0.00 0.00 0.00 0.00 0.00 0.01 0.00 0.00 0.02 0.03 0.04 0.03 0.02 0.03 0.03 0.01 0.01 0.00 0.00 0.01 0.01 0.01 0.01
0.00 0.00 0.00 0.00 0.00 0.00 0.00 0.00 0.00 0.00 0.01 0.02 0.04 0.02 0.00 0.00 0.00 0.00 0.00 0.00 0.00 0.00 0.00 0.00 0.00 0.00 0.00 0.00 0.00 0.00 0.00 0.01 0.01 0.01 0.03 0.05 0.05 0.04 0.01 0.02 0.04 0.05 0.04 0.02 0.02 0.03 0.02 0.03 0.05
0.00 0.00 0.00 0.00 0.00 0.00 0.00 0.00 0.00 0.00 0.01 0.05 0.11 0.07 0.01 0.00 0.00 0.00 0.00 0.00 0.00 0.00 0.00 0.00 0.00 0.00 0.00 0.00 0.00 0.00 0.00 0.00 0.00 0.01 0.03 0.04 0.06 0.04 0.02 0.02 0.02 0.06 0.06 0.09 0.08 0.08 0.06 0.06 0.06
0.00 0.00 0.00 0.00 0.00 0.00 0.00 0.00 0.00 0.00 0.01 0.02 0.03 0.03 0.03 0.01 0.00 0.00 0.00 0.00 0.00 0.00 0.00 0.00 0.00 0.00 0.00 0.00 0.00 0.00 0.00 0.00 0.00 0.00 0.01 0.02 0.04 0.04 0.04 0.05 0.05 0.03 0.04 0.08 0.11 0.09 0.10 0.08 0.07
0.00 0.00 0.00 0.00 0.00 0.00 0.00 0.00 0.00 0.00 0.00 0.01 0.01 0.01 0.01 0.00 0.00 0.00 0.00 0.00 0.00 0.00 0.00 0.00 0.00 0.00 0.00 0.00 0.00 0.00 0.00 0.00 0.00 0.00 0.00 0.01 0.03 0.05 0.07 0.09 0.11 0.09 0.09 0.10 0.10 0.09 0.13 0.11 0.11
0.00 0.00 0.00 0.00 0.00 0.00 0.00 0.00 0.00 0.00 0.00 0.00 0.00 0.00 0.00 0.00 0.00 0.00 0.00 0.00 0.00 0.00 0.01 0.00 0.00 0.00 0.00 0.00 0.00 0.01 0.00 0.01 0.01 0.02 0.02 0.02 0.04 0.08 0.09 0.10 0.11 0.13 0.15 0.16 0.13 0.11 0.14 0.14 0.14
0.00 0.00 0.00 0.00 0.00 0.00 0.00 0.00 0.00 0.00 0.01 0.01 0.00 0.00 0.01 0.01 0.01 0.01 0.00 0.00 0.01 0.00 0.01 0.00 0.00 0.00 0.00 0.00 0.01 0.01 0.00 0.01 0.01 0.02 0.02 0.03 0.05 0.09 0.10 0.10 0.13 0.19 0.18 0.17 0.19 0.16 0.18 0.22 0.24
0.00 0.00 0.00 0.00 0.00 0.00 0.00 0.00 0.00 0.00 0.02 0.04 0.02 0.01 0.03 0.08 0.08 0.04 0.02 0.02 0.01 0.02 0.02 0.01 0.01 0.01 0.01 0.01 0.01 0.01 0.01 0.01 0.01 0.01 0.03 0.03 0.05 0.07 0.09 0.09 0.11 0.14 0.14 0.15 0.15 0.20 0.23 0.24 0.26
0.00 0.00 0.00 0.00 0.00 0.00 0.00 0.00 0.00 0.00 0.00 0.01 0.01 0.02 0.05 0.07 0.07 0.07 0.03 0.02 0.02 0.03 0.02 0.02 0.02 0.02 0.02 0.02 0.02 0.02 0.01 0.02 0.01 0.01 0.02 0.02 0.02 0.03 0.05 0.07 0.08 0.10 0.11 0.11 0.13 0.15 0.19 0.20 0.22
0.00 0.00 0.00 0.00 0.00 0.00 0.00 0.00 0.00 0.00 0.00 0.00 0.01 0.03 0.06 0.06 0.07 0.06 0.04 0.04 0.05 0.05 0.04 0.03 0.02 0.03 0.03 0.04 0.03 0.02 0.02 0.01 0.01 0.01 0.01 0.01 0.01 0.02 0.03 0.04 0.06 0.06 0.07 0.07 0.09 0.12 0.13 0.15 0.21
0.00 0.00 0.00 0.00 0.00 0.00 0.00 0.00 0.00 0.00 0.00 0.01 0.01 0.03 0.05 0.03 0.04 0.05 0.05 0.06 0.07 0.09 0.07 0.04 0.04 0.05 0.04 0.04 0.03 0.03 0.02 0.01 0.01 0.00 0.01 0.01 0.01 0.01 0.02 0.03 0.03 0.04 0.05 0.05 0.07 0.09 0.09 0.09 0.18
0.00 0.00 0.00 0.00 0.00 0.00 0.00 0.00 0.00 0.02 0.04 0.07 0.04 0.01 0.02 0.04 0.07 0.06 0.07 0.09 0.12 0.11 0.06 0.05 0.06 0.06 0.04 0.04 0.03 0.03 0.02 0.01 0.02 0.01 0.01 0.00 0.00 0.01 0.02 0.02 0.03 0.03 0.03 0.03 0.04 0.05 0.06 0.06 0.10
0.00 0.00 0.00 0.00 0.00 0.00 0.00 0.00 0.01 0.05 0.14 0.15 0.07 0.04 0.08 0.13 0.13 0.09 0.09 0.11 0.09 0.06 0.03 0.04 0.05 0.07 0.07 0.04 0.03 0.03 0.02 0.02 0.02 0.01 0.01 0.01 0.01 0.01 0.01 0.00 0.01 0.01 0.01 0.02 0.02 0.03 0.04 0.04 0.04
0.00 0.00 0.00 0.00 0.00 0.00 0.00 0.00 0.00 0.02 0.07 0.13 0.11 0.12 0.22 0.20 0.09 0.06 0.06 0.07 0.04 0.03 0.02 0.02 0.04 0.06 0.06 0.04 0.04 0.04 0.02 0.02 0.01 0.01 0.02 0.01 0.01 0.00 0.00 0.00 0.00 0.00 0.00 0.01 0.01 0.01 0.02 0.03 0.04
0.00 0.00 0.00 0.00 0.01 0.02 0.02 0.01 0.01 0.02 0.03 0.07 0.09 0.08 0.13 0.17 0.09 0.05 0.05 0.04 0.02 0.01 0.02 0.03 0.06 0.08 0.07 0.06 0.06 0.06 0.05 0.04 0.03 0.03 0.02 0.02 0.01 0.00 0.00 0.00 0.00 0.00 0.00 0.00 0.01 0.01 0.01 0.02 0.03
0.00 0.00 0.01 0.04 0.09 0.09 0.08 0.05 0.03 0.02 0.01 0.01 0.01 0.02 0.08 0.13 0.10 0.07 0.08 0.10 0.06 0.03 0.02 0.02 0.03 0.07 0.08 0.07 0.08 0.09 0.08 0.06 0.05 0.05 0.04 0.03 0.02 0.01 0.01 0.01 0.00 0.00 0.00 0.00 0.01 0.01 0.01 0.01 0.02
0.00 0.00 0.00 0.02 0.04 0.03 0.04 0.04 0.04 0.02 0.01 0.00 0.00 0.01 0.01 0.02 0.02 0.04 0.06 0.07 0.06 0.04 0.04 0.03 0.03 0.06 0.08 0.09 0.10 0.10 0.10 0.08 0.07 0.09 0.06 0.05 0.03 0.01 0.01 0.01 0.01 0.01 0.00 0.00 0.01 0.01 0.01 0.02 0.02
0.00 0.00 0.00 0.00 0.00 0.00 0.01 0.04 0.08 0.10 0.05 0.02 0.01 0.00 0.00 0.01 0.01 0.02 0.03 0.05 0.07 0.05 0.04 0.03 0.03 0.05 0.06 0.08 0.09 0.11 0.12 0.12 0.11 0.11 0.08 0.06 0.06 0.03 0.03 0.03 0.03 0.02 0.01 0.01 0.01 0.01 0.02 0.02 0.03
0.00 0.00 0.00 0.00 0.00 0.00 0.01 0.07 0.14 0.21 0.18 0.08 0.01 0.00 0.00 0.00 0.00 0.00 0.01 0.02 0.04 0.03 0.02 0.02 0.02 0.03 0.03 0.04 0.06 0.07 0.09 0.11 0.12 0.10 0.11 0.08 0.07 0.06 0.05 0.04 0.04 0.03 0.02 0.01 0.01 0.01 0.01 0.02 0.03
0.00 0.00 0.00 0.00 0.00 0.00 0.01 0.05 0.05 0.08 0.08 0.05 0.02 0.01 0.01 0.00 0.00 0.00 0.00 0.01 0.01 0.01 0.01 0.01 0.02 0.01 0.01 0.02 0.03 0.04 0.05 0.06 0.08 0.10 0.09 0.09 0.09 0.08 0.06 0.06 0.06 0.05 0.03 0.03 0.02 0.02 0.02 0.02 0.03
0.01 0.00 0.00 0.00 0.00 0.00 0.01 0.06 0.03 0.03 0.04 0.02 0.01 0.01 0.00 0.00 0.00 0.00 0.00 0.00 0.00 0.01 0.01 0.01 0.01 0.01 0.01 0.01 0.01 0.02 0.03 0.03 0.04 0.05 0.07 0.08 0.08 0.08 0.08 0.08 0.08 0.07 0.06 0.05 0.04 0.02 0.02 0.02 0.02
MSLP
1006.52 1007.25 1007.98 1008.54 1008.78 1008.63 1008.10 1007.30 1006.37 1005.52 1004.91 1004.64 1004.72 1005.09 1005.62 1006.18 1006.64 1006.94 1007.08 1007.13 1007.19 1007.37 1007.73 1008.29 1009.01 1009.77 1010.49 1011.06 1011.43 1011.62 1011.67 1011.68 1011.72 1011.87 1012.15 1012.53 1012.95 1013.35 1013.67 1013.87 1013.96 1013.98 1013.97 1013.98 1014.05 1014.19 1014.38 1014.58 1014.75
1006.51 1007.28 1007.98 1008.47 1008.60 1008.34 1007.72 1006.84 1005.90 1005.07 1004.50 1004.27 1004.39 1004.76 1005.27 1005.77 1006.18 1006.44 1006.58 1006.67 1006.83 1007.13 1007.64 1008.33 1009.16 1009.99 1010.73 1011.28 1011.62 1011.76 1011.78 1011.76 1011.80 1011.96 1012.25 1012.64 1013.06 1013.44 1013.73 1013.90 1013.96 1013.95 1013.93 1013.96 1014.06 1014.23 1014.44 1014.66 1014.83
1006.53 1007.31 1007.96 1008.36 1008.38 1008.01 1007.30 1006.39 1005.45 1004.67 1004.17 1004.00 1004.15 1004.52 1004.99 1005.44 1005.79 1005.99 1006.12 1006.25 1006.48 1006.89 1007.52 1008.34 1009.26 1010.15 1010.92 1011.48 1011.80 1011.93 1011.93 1011.91 1011.96 1012.13 1012.42 1012.79 1013.18 1013.51 1013.75 1013.86 1013.88 1013.86 1013.85 1013.91 1014.05 1014.26 1014.52 1014.76 1014.94
1006.58 1007.31 1007.89 1008.18 1008.09 1007.62 1006.86 1005.95 1005.06 1004.35 1003.94 1003.85 1004.05 1004.42 1004.86 1005.24 1005.51 1005.65 1005.75 1005.89 1006.17 1006.66 1007.39 1008.30 1009.29 1010.24 1011.04 1011.61 1011.94 1012.08 1012.09 1012.09 1012.16 1012.33 1012.61 1012.95 1013.29 1013.56 1013.72 1013.78 1013.76 1013.73 1013.74 1013.84 1014.03 1014.31 1014.61 1014.87 1015.06
1006.61 1007.27 1007.75 1007.91 1007.71 1007.18 1006.40 1005.52 1004.72 1004.13 1003.84 1003.85 1004.10 1004.48 1004.88 1005.19 1005.38 1005.46 1005.50 1005.63 1005.93 1006.47 1007.25 1008.21 1009.25 1010.23 1011.05 1011.64 1011.99 1012.15 1012.20 1012.24 1012.33 1012.52 1012.79 1013.09 1013.37 1013.57 1013.66 1013.66 1013.61 1013.57 1013.61 1013.75 1014.01 1014.33 1014.68 1014.97 1015.16
1006.62 1007.16 1007.50 1007.53 1007.24 1006.66 1005.90 1005.10 1004.42 1003.98 1003.84 1003.96 1004.28 1004.69 1005.06 1005.31 1005.41 1005.41 1005.40 1005.49 1005.78 1006.32 1007.11 1008.08 1009.13 1010.11 1010.93 1011.52 1011.89 1012.09 1012.18 1012.26 1012.40 1012.61 1012.87 1013.14 1013.37 1013.51 1013.54 1013.49 1013.41 1013.37 1013.43 1013.62 1013.92 1014.29 1014.67 1014.97 1015.15
1006.60 1006.99 1007.17 1007.07 1006.69 1006.09 1005.37 1004.68 1004.15 1003.88 1003.90 1004.15 1004.56 1004.99 1005.34 1005.54 1005.58 1005.52 1005.45 1005.49 1005.74 1006.25 1007.00 1007.94 1008.94 1009.88 1010.67 1011.25 1011.62 1011.84 1011.97 1012.10 1012.28 1012.51 1012.78 1013.04 1013.23 1013.32 1013.31 1013.23 1013.14 1013.10 1013.18 1013.40 1013.73 1014.13 1014.51 1014.81 1014.97
1006.54 1006.77 1006.79 1006.56 1006.10 1005.49 1004.84 1004.27 1003.91 1003.81 1003.99 1004.37 1004.86 1005.33 1005.68 1005.85 1005.85 1005.73 1005.61 1005.60 1005.80 1006.25 1006.94 1007.80 1008.71 1009.57 1010.29 1010.82 1011.18 1011.40 1011.56 1011.72 1011.94 1012.20 1012.48 1012.74 1012.92 1012.99 1012.96 1012.87 1012.77 1012.74 1012.83 1013.06 1013.39 1013.79 1014.17 1014.45 1014.59
1006.50 1006.56 1006.42 1006.07 1005.55 1004.94 1004.35 1003.91 1003.69 1003.75 1004.07 1004.56 1005.12 1005.63 1005.99 1006.15 1006.12 1005.98 1005.83 1005.79 1005.94 1006.32 1006.92 1007.67 1008.47 1009.22 1009.84 1010.30 1010.60 1010.81 1010.97 1011.15 1011.39 1011.68 1011.98 1012.25 1012.43 1012.51 1012.49 1012.40 1012.31 1012.29 1012.38 1012.59 1012.92 1013.29 1013.64 1013.89 1014.01
1006.49 1006.40 1006.12 1005.66 1005.09 1004.49 1003.96 1003.61 1003.51 1003.69 1004.10 1004.68 1005.28 1005.82 1006.19 1006.35 1006.33 1006.19 1006.04 1005.99 1006.11 1006.43 1006.94 1007.58 1008.25 1008.87 1009.38 1009.74 1009.98 1010.14 1010.28 1010.46 1010.71 1011.01 1011.33 1011.62 1011.82 1011.93 1011.93 1011.86 1011.79 1011.77 1011.86 1012.05 1012.33 1012.66 1012.97 1013.19 1013.29
1006.55 1006.33 1005.94 1005.39 1004.78 1004.18 1003.69 1003.40 1003.37 1003.61 1004.08 1004.67 1005.29 1005.82 1006.20 1006.37 1006.38 1006.27 1006.15 1006.11 1006.22 1006.51 1006.95 1007.50 1008.06 1008.56 1008.96 1009.23 1009.39 1009.49 1009.60 1009.76 1010.00 1010.30 1010.63 1010.93 1011.17 1011.31 1011.35 1011.32 1011.27 1011.26 1011.33 1011.48 1011.72 1011.99 1012.24 1012.43 1012.51
1006.67 1006.36 1005.88 1005.28 1004.63 1004.02 1003.55 1003.28 1003.27 1003.52 1003.96 1004.52 1005.10 1005.60 1005.96 1006.15 1006.18 1006.13 1006.06 1006.07 1006.21 1006.50 1006.91 1007.40 1007.89 1008.31 1008.63 1008.82 1008.92 1008.98 1009.05 1009.17 1009.38 1009.66 1009.99 1010.30 1010.57 1010.74 1010.83 1010.84 1010.82 1010.82 1010.86 1010.98 1011.15 1011.36 1011.56 1011.71 1011.78
1006.85 1006.47 1005.93 1005.28 1004.61 1004.00 1003.53 1003.25 1003.21 1003.40 1003.76 1004.23 1004.72 1005.15 1005.46 1005.64 1005.71 1005.72 1005.73 1005.81 1006.02 1006.35 1006.78 1007.26 1007.73 1008.12 1008.40 1008.56 1008.63 1008.66 1008.69 1008.77 1008.94 1009.19 1009.50 1009.81 1010.09 1010.30 1010.43 1010.48 1010.50 1010.50 1010.52 1010.59 1010.70 1010.84 1010.98 1011.10 1011.17
1007.02 1006.60 1006.03 1005.37 1004.70 1004.09 1003.60 1003.29 1003.17 1003.25 1003.48 1003.81 1004.16 1004.48 1004.72 1004.88 1004.98 1005.04 1005.14 1005.32 1005.61 1006.01 1006.50 1007.03 1007.54 1007.96 1008.27 1008.45 1008.53 1008.55 1008.56 1008.61 1008.74 1008.94 1009.21 1009.50 1009.78 1010.01 1010.18 1010.28 1010.32 1010.33 1010.34 1010.36 1010.41 1010.49 1010.57 1010.65 1010.72
1007.15 1006.70 1006.12 1005.48 1004.83 1004.23 1003.74 1003.37 1003.16 1003.10 1003.17 1003.32 1003.50 1003.69 1003.85 1003.97 1004.07 1004.19 1004.37 1004.64 1005.03 1005.53 1006.11 1006.72 1007.30 1007.80 1008.18 1008.43 1008.56 1008.60 1008.62 1008.65 1008.73 1008.88 1009.09 1009.35 1009.62 1009.87 1010.07 1010.20 1010.27 1010.30 1010.29 1010.28 1010.28 1010.29 1010.31 1010.36 1010.41
1007.20 1006.74 1006.19 1005.59 1004.99 1004.43 1003.93 1003.52 1003.21 1003.01 1002.90 1002.86 1002.87 1002.90 1002.96 1003.04 1003.14 1003.30 1003.55 1003.91 1004.38 1004.97 1005.64 1006.34 1007.02 1007.62 1008.10 1008.44 1008.65 1008.75 1008.78 1008.80 1008.84 1008.94 1009.10 1009.32 1009.57 1009.82 1010.04 1010.21 1010.31 1010.35 1010.35 1010.31 1010.25 1010.20 1010.17 1010.17 1010.20
1007.17 1006.73 1006.23 1005.71 1005.19 1004.69 1004.21 1003.77 1003.37 1003.03 1002.75 1002.53 1002.37 1002.27 1002.23 1002.26 1002.36 1002.55 1002.84 1003.26 1003.79 1004.44 1005.18 1005.95 1006.71 1007.41 1007.99 1008.43 1008.72 1008.88 1008.95 1008.97 1008.98 1009.04 1009.15 1009.32 1009.54 1009.79 1010.04 1010.24 1010.38 1010.44 1010.43 1010.37 1010.28 1010.18 1010.09 1010.04 1010.03
1007.09 1006.70 1006.30 1005.89 1005.49 1005.07 1004.64 1004.18 1003.72 1003.26 1002.82 1002.44 1002.14 1001.92 1001.80 1001.79 1001.88 1002.09 1002.42 1002.86 1003.42 1004.08 1004.83 1005.63 1006.43 1007.18 1007.83 1008.35 1008.72 1008.94 1009.05 1009.07 1009.07 1009.08 1009.15 1009.29 1009.49 1009.74 1010.00 1010.24 1010.41 1010.50 1010.51 1010.43 1010.31 1010.16 1010.03 1009.92 1009.87
1007.01 1006.72 1006.45 1006.20 1005.94 1005.64 1005.27 1004.82 1004.30 1003.74 1003.19 1002.68 1002.26 1001.95 1001.78 1001.75 1001.84 1002.06 1002.40 1002.84 1003.38 1004.01 1004.71 1005.47 1006.25 1006.99 1007.66 1008.21 1008.62 1008.89 1009.02 1009.06 1009.05 1009.05 1009.09 1009.20 1009.39 1009.64 1009.91 1010.18 1010.38 1010.50 1010.52 1010.45 1010.31 1010.12 1009.94 1009.79 1009.69
1007.01 1006.86 1006.76 1006.70 1006.60 1006.43 1006.14 1005.71 1005.16 1004.52 1003.86 1003.25 1002.75 1002.39 1002.19 1002.16 1002.28 1002.51 1002.85 1003.26 1003.74 1004.28 1004.89 1005.54 1006.22 1006.89 1007.51 1008.04 1008.46 1008.74 1008.90 1008.95 1008.95 1008.93 1008.96 1009.06 1009.24 1009.49 1009.77 1010.06 1010.29 1010.43 1010.47 1010.40 1010.25 1010.04 1009.83 1009.64 1009.50
1007.14 1007.15 1007.26 1007.40 1007.49 1007.46 1007.25 1006.84 1006.25 1005.55 1004.81 1004.12 1003.57 1003.18 1003.00 1002.99 1003.14 1003.40 1003.73 1004.10 1004.50 1004.92 1005.38 1005.87 1006.39 1006.93 1007.45 1007.91 1008.30 1008.57 1008.73 1008.80 1008.80 1008.79 1008.82 1008.91 1009.08 1009.32 1009.61 1009.90 1010.14 1010.30 1010.35 1010.29 1010.13 1009.92 1009.69 1009.48 1009.32
1007.38 1007.61 1007.93 1008.28 1008.55 1008.64 1008.50 1008.11 1007.50 1006.74 1005.93 1005.20 1004.61 1004.23 1004.07 1004.11 1004.31 1004.61 1004.94 1005.27 1005.58 1005.86 1006.15 1006.45 1006.78 1007.14 1007.52 1007.88 1008.20 1008.44 1008.60 1008.68 1008.70 1008.70 1008.73 1008.81 1008.97 1009.19 1009.46 1009.74 1009.97 1010.12 1010.17 1010.11 1009.96 1009.75 1009.52 1009.31 1009.14
1007.71 1008.14 1008.68 1009.22 1009.65 1009.85 1009.77 1009.39 1008.76 1007.95 1007.10 1006.33 1005.73 1005.36 1005.25 1005.36 1005.62 1005.96 1006.30 1006.60 1006.83 1006.98 1007.10 1007.21 1007.35 1007.53 1007.75 1007.99 1008.23 1008.43 1008.58 1008.66 1008.70 1008.71 1008.74 1008.81 1008.93 1009.12 1009.35 1009.58 1009.77 1009.90 1009.93 1009.87 1009.73 1009.54 1009.33 1009.13 1008.97
1008.05 1008.67 1009.39 1010.09 1010.64 1010.94 1010.90 1010.54 1009.89 1009.05 1008.18 1007.39 1006.80 1006.46 1006.40 1006.56 1006.89 1007.28 1007.65 1007.93 1008.09 1008.15 1008.13 1008.08 1008.04 1008.05 1008.13 1008.26 1008.41 1008.57 1008.70 1008.78 1008.82 1008.84 1008.86 1008.90 1008.98 1009.10 1009.26 1009.42 1009.55 1009.63 1009.63 1009.56 1009.43 1009.26 1009.08 1008.91 1008.78
1008.32 1009.07 1009.92 1010.74 1011.39 1011.75 1011.76 1011.42 1010.78 1009.94 1009.07 1008.29 1007.72 1007.42 1007.40 1007.63 1008.01 1008.44 1008.83 1009.11 1009.25 1009.23 1009.11 1008.94 1008.77 1008.65 1008.61 1008.64 1008.73 1008.84 1008.95 1009.03 1009.07 1009.07 1009.07 1009.06 1009.08 1009.12 1009.17 1009.24 1009.28 1009.29 1009.25 1009.17 1009.04 1008.90 1008.75 1008.63 1008.53
1008.46 1009.28 1010.19 1011.07 1011.78 1012.20 1012.26 1011.96 1011.36 1010.57 1009.74 1009.00 1008.46 1008.20 1008.23 1008.49 1008.91 1009.37 1009.78 1010.07 1010.18 1010.14 1009.96 1009.72 1009.47 1009.26 1009.13 1009.09 1009.12 1009.19 1009.27 1009.34 1009.36 1009.35 1009.30 1009.24 1009.17 1009.11 1009.05 1009.01 1008.95 1008.89 1008.80 1008.69 1008.57 1008.45 1008.34 1008.25 1008.18
1008.44 1009.26 1010.18 1011.07 1011.81 1012.27 1012.39 1012.17 1011.66 1010.95 1010.20 1009.53 1009.06 1008.84 1008.89 1009.17 1009.59 1010.06 1010.47 1010.76 1010.87 1010.82 1010.63 1010.35 1010.06 1009.80 1009.62 1009.53 1009.51 1009.54 1009.60 1009.63 1009.63 1009.58 1009.49 1009.35 1009.20 1009.04 1008.87 1008.71 1008.56 1008.41 1008.27 1008.14 1008.02 1007.92 1007.84 1007.78 1007.73
1008.31 1009.06 1009.93 1010.79 1011.53 1012.04 1012.24 1012.12 1011.74 1011.16 1010.53 1009.97 1009.56 1009.38 1009.44 1009.70 1010.10 1010.54 1010.93 1011.20 1011.32 1011.26 1011.08 1010.80 1010.50 1010.23 1010.02 1009.89 1009.83 1009.83 1009.84 1009.84 1009.80 1009.71 1009.56 1009.36 1009.13 1008.87 1008.61 1008.35 1008.11 1007.90 1007.71 1007.55 1007.43 1007.35 1007.29 1007.25 1007.20
1008.14 1008.78 1009.56 1010.37 1011.10 1011.64 1011.93 1011.95 1011.72 1011.31 1010.83 1010.38 1010.05 1009.90 1009.95 1010.17 1010.50 1010.88 1011.22 1011.45 1011.55 1011.50 1011.32 1011.07 1010.78 1010.50 1010.28 1010.12 1010.02 1009.97 1009.94 1009.90 1009.81 1009.68 1009.49 1009.24 1008.94 1008.62 1008.29 1007.96 1007.65 1007.38 1007.15 1006.98 1006.85 1006.78 1006.73 1006.70 1006.65
1008.06 1008.58 1009.25 1009.98 1010.68 1011.26 1011.64 1011.79 1011.73 1011.49 1011.17 1010.84 1010.58 1010.44 1010.45 1010.60 1010.84 1011.12 1011.37 1011.54 1011.61 1011.55 1011.39 1011.15 1010.88 1010.61 1010.37 1010.19 1010.05 1009.95 1009.87 1009.78 1009.66 1009.49 1009.26 1008.99 1008.66 1008.30 1007.93 1007.56 1007.21 1006.91 1006.66 1006.46 1006.33 1006.26 1006.21 1006.18 1006.11
Thickness
5863 5865 5864 5860 5843 5835 5844 5862 5871 5870 5874 5886 5888 5883 5870 5857 5846 5833 5865 5876 5868 5854 5845 5838 5833 5829 5825 5821 5817 5813 5810 5807 5804 5801 5798 5795 5793 5790 5788 5785 5783 5781 5778 5776 5774 5772 5770 5768 5766
5869 5873 5867 5855 5832 5823 5842 5865 5864 5870 5881 5891 5888 5883 5871 5861 5868 5865 5870 5872 5865 5853 5844 5839 5832 5828 5824 5820 5816 5813 5809 5806 5803 5800 5797 5795 5792 5790 5787 5785 5782 5780 5778 5776 5774 5772 5769 5767 5765
5872 5876 5861 5852 5838 5835 5846 5867 5871 5880 5889 5888 5880 5878 5867 5858 5868 5868 5871 5872 5863 5853 5845 5837 5831 5827 5822 5819 5815 5812 5808 5805 5802 5799 5796 5794 5791 5789 5786 5784 5781 5779 5777 5775 5773 5771 5769 5767 5765
5875 5874 5863 5850 5843 5861 5871 5877 5884 5881 5884 5888 5881 5867 5864 5872 5874 5872 5874 5872 5861 5853 5845 5835 5830 5825 5821 5817 5813 5810 5807 5804 5801 5798 5795 5792 5790 5787 5785 5782 5780 5778 5776 5774 5772 5771 5769 5767 5765
5879 5864 5853 5844 5846 5868 5884 5890 5889 5876 5875 5881 5876 5856 5852 5870 5878 5875 5873 5869 5861 5854 5843 5834 5828 5823 5819 5815 5811 5808 5805 5802 5799 5796 5794 5791 5788 5786 5784 5781 5779 5777 5775 5774 5772 5770 5769 5767 5765
5866 5867 5848 5839 5844 5866 5884 5893 5889 5878 5877 5881 5874 5856 5851 5868 5869 5870 5872 5868 5865 5855 5843 5832 5826 5822 5817 5814 5810 5807 5803 5800 5797 5795 5792 5789 5787 5784 5782 5780 5778 5777 5775 5773 5772 5770 5768 5767 5765
5858 5854 5848 5855 5854 5864 5881 5895 5885 5878 5874 5879 5881 5857 5851 5862 5868 5871 5869 5868 5865 5856 5842 5832 5826 5820 5816 5812 5809 5805 5802 5799 5796 5793 5790 5788 5785 5783 5781 5779 5778 5776 5774 5772 5771 5769 5768 5766 5765
5871 5857 5851 5864 5861 5861 5883 5893 5893 5882 5873 5890 5889 5860 5849 5860 5869 5868 5866 5865 5861 5853 5843 5834 5828 5821 5816 5812 5808 5804 5801 5797 5794 5792 5789 5786 5784 5782 5781 5779 5777 5776 5774 5772 5770 5769 5767 5766 5765
5872 5845 5843 5863 5863 5864 5885 5886 5892 5895 5883 5882 5885 5879 5872 5871 5869 5861 5856 5856 5853 5849 5843 5838 5830 5823 5819 5815 5810 5804 5800 5797 5793 5791 5788 5785 5784 5783 5782 5781 5779 5776 5773 5772 5770 5768 5767 5765 5764
5860 5838 5853 5879 5882 5879 5884 5884 5886 5880 5870 5863 5863 5868 5870 5867 5861 5852 5848 5846 5843 5842 5841 5840 5833 5826 5822 5820 5812 5806 5801 5798 5793 5792 5789 5785 5783 5783 5784 5783 5779 5776 5773 5771 5769 5768 5766 5764 5764
5856 5847 5865 5879 5887 5885 5882 5886 5889 5875 5854 5850 5842 5845 5856 5858 5855 5849 5847 5846 5842 5841 5839 5838 5833 5828 5825 5820 5813 5809 5806 5802 5795 5792 5789 5786 5783 5782 5782 5781 5779 5775 5772 5769 5768 5766 5764 5764 5764
5852 5857 5866 5871 5880 5877 5875 5881 5882 5877 5863 5864 5854 5846 5849 5851 5850 5848 5845 5845 5841 5838 5836 5836 5832 5825 5821 5818 5814 5810 5806 5802 5799 5794 5790 5787 5783 5780 5779 5778 5777 5774 5771 5769 5768 5766 5765 5764 5764
5846 5852 5862 5869 5872 5872 5872 5871 5874 5872 5875 5871 5859 5851 5847 5849 5852 5852 5850 5846 5841 5835 5834 5833 5829 5821 5816 5811 5807 5806 5803 5801 5797 5793 5789 5785 5781 5777 5776 5774 5772 5770 5768 5767 5766 5763 5762 5762 5762
5841 5847 5854 5862 5865 5867 5861 5865 5868 5872 5879 5869 5856 5850 5852 5853 5853 5851 5847 5842 5838 5834 5831 5829 5824 5818 5811 5805 5800 5798 5797 5795 5792 5789 5785 5781 5778 5774 5771 5768 5765 5764 5762 5762 5761 5760 5758 5757 5757
5841 5831 5835 5847 5855 5861 5860 5848 5861 5878 5877 5865 5859 5857 5855 5855 5853 5848 5845 5841 5838 5833 5830 5824 5819 5814 5806 5801 5796 5794 5792 5791 5788 5785 5781 5777 5774 5769 5766 5762 5760 5759 5757 5756 5755 5754 5753 5751 5751
5827 5817 5812 5839 5856 5862 5848 5828 5859 5876 5868 5856 5855 5854 5852 5849 5849 5848 5845 5839 5836 5831 5825 5820 5817 5809 5803 5796 5792 5790 5788 5786 5783 5780 5777 5773 5769 5765 5761 5758 5755 5754 5752 5751 5749 5748 5746 5744 5743
5811 5804 5812 5836 5862 5861 5847 5833 5854 5866 5857 5846 5843 5844 5844 5839 5838 5839 5839 5834 5830 5825 5819 5813 5809 5803 5797 5792 5787 5784 5782 5780 5777 5775 5772 5768 5764 5760 5757 5754 5752 5750 5748 5747 5745 5745 5742 5738 5737
5806 5818 5827 5835 5853 5847 5832 5829 5845 5854 5849 5842 5839 5838 5833 5827 5826 5829 5829 5827 5822 5817 5812 5806 5801 5796 5791 5786 5781 5778 5776 5774 5773 5770 5766 5762 5758 5755 5752 5749 5747 5746 5743 5742 5740 5738 5737 5735 5734
5813 5812 5817 5833 5843 5829 5820 5822 5834 5841 5838 5835 5832 5829 5823 5817 5821 5819 5815 5812 5810 5805 5801 5797 5791 5786 5783 5779 5773 5768 5766 5766 5766 5764 5761 5757 5753 5750 5747 5744 5742 5741 5739 5737 5736 5734 5732 5731 5731
5807 5802 5809 5824 5834 5821 5812 5817 5831 5831 5827 5825 5822 5819 5813 5808 5808 5804 5803 5801 5796 5793 5790 5786 5781 5777 5774 5772 5768 5764 5762 5761 5761 5759 5755 5752 5748 5745 5743 5739 5736 5735 5733 5732 5731 5729 5726 5726 5726
5803 5801 5802 5803 5813 5816 5808 5803 5813 5818 5819 5815 5814 5811 5805 5799 5792 5792 5791 5787 5786 5784 5780 5777 5772 5769 5766 5764 5761 5759 5755 5752 5751 5749 5747 5746 5743 5740 5737 5734 5732 5730 5728 5727 5725 5724 5722 5719 5720
5788 5801 5801 5798 5790 5789 5801 5780 5799 5803 5797 5791 5788 5787 5785 5782 5779 5778 5777 5773 5774 5775 5773 5770 5765 5761 5758 5755 5752 5749 5744 5741 5742 5742 5742 5740 5739 5736 5733 5731 5728 5726 5724 5722 5721 5722 5717 5715 5713
5794 5804 5798 5794 5786 5780 5790 5780 5787 5795 5778 5772 5771 5771 5768 5761 5765 5764 5762 5759 5762 5764 5762 5760 5756 5753 5749 5746 5744 5740 5737 5736 5737 5736 5734 5733 5732 5731 5729 5727 5724 5722 5719 5718 5717 5715 5713 5711 5709
5805 5798 5794 5787 5770 5745 5749 5740 5760 5776 5772 5766 5764 5763 5760 5753 5752 5753 5754 5749 5749 5751 5749 5747 5745 5740 5738 5735 5733 5729 5726 5726 5725 5724 5723 5724 5725 5725 5725 5723 5720 5717 5715 5714 5712 5710 5709 5707 5706
5792 5773 5755 5736 5721 5715 5727 5726 5750 5775 5778 5770 5762 5758 5754 5750 5745 5742 5739 5736 5734 5733 5732 5731 5728 5726 5725 5723 5721 5719 5717 5716 5715 5714 5715 5715 5716 5717 5718 5718 5714 5712 5710 5709 5707 5706 5704 5703 5702
5785 5777 5752 5732 5729 5741 5734 5732 5749 5766 5768 5765 5760 5755 5751 5745 5738 5733 5729 5725 5722 5719 5717 5715 5713 5710 5709 5709 5707 5707 5707 5706 5706 5706 5706 5706 5707 5709 5711 5710 5708 5706 5705 5704 5702 5701 5700 5700 5699
5781 5779 5787 5767 5763 5757 5759 5743 5737 5741 5744 5749 5749 5747 5742 5736 5730 5725 5720 5715 5711 5707 5704 5701 5698 5696 5695 5693 5692 5693 5693 5693 5693 5694 5695 5696 5698 5699 5701 5701 5700 5700 5699 5698 5697 5695 5695 5695 5694
5797 5790 5778 5758 5737 5734 5751 5735 5722 5717 5719 5729 5734 5733 5730 5726 5720 5715 5709 5704 5699 5696 5692 5689 5686 5683 5681 5680 5679 5679 5679 5679 5680 5681 5681 5682 5685 5687 5689 5690 5691 5691 5691 5691 5690 5690 5690 5689 5689
5780 5779 5774 5764 5754 5732 5725 5724 5740 5726 5722 5721 5722 5721 5717 5712 5707 5701 5696 5691 5686 5682 5677 5673 5671 5668 5667 5665 5664 5663 5663 5664 5665 5665 5667 5668 5670 5673 5676 5678 5680 5681 5682 5684 5683 5683 5684 5684 5684
5778 5771 5766 5744 5738 5741 5730 5717 5741 5731 5723 5720 5715 5710 5704 5698 5693 5687 5681 5676 5671 5666 5662 5659 5656 5653 5651 5650 5649 5648 5648 5648 5649 5650 5652 5654 5656 5659 5662 5666 5668 5670 5673 5675 5675 5676 5677 5677 5677